Jackson, KY

9:24 AM EDT on July 20, 2017 (GMT -0400)
Carroll

Weather History for KJKL - May, 2014

Change the Weather History Date:

Wednesday, May 7, 2014

  Actual Average Record
Temperature  
Mean Temperature 73 °F 63 °F  
Max Temperature 86 °F 73 °F 90 °F (1986)
Min Temperature 59 °F 53 °F 32 °F (1989)
Degree Days  
Heating Degree Days 0 4  
Month to date heating degree days 27 32  
Since 1 July heating degree days 4457 4153  
Cooling Degree Days 8 2  
Month to date cooling degree days 20 14  
Year to date cooling degree days 59 60  
Growing Degree Days 22 (Base 50)    
Moisture  
Dew Point 51 °F    
Average Humidity 51    
Maximum Humidity 72    
Minimum Humidity 29    
Precipitation  
Precipitation 0.00 in 0.16 in 2.15 in (1984)
Month to date precipitation T 1.09  
Year to date precipitation 18.56 16.40  
Snow  
Snow 0.00 in 0.00 in 1.00 in (1989)
Month to date snowfall 0.0 0.0  
Since 1 July snowfall 38.9 23.5  
Snow Depth 0.00 in    
Sea Level Pressure  
Sea Level Pressure 30.00 in    
Wind  
Wind Speed 3 mph (South)    
Max Wind Speed 9 mph    
Max Gust Speed 17 mph    
Visibility 10 miles    
Events      
T = Trace of Precipitation, MM = Missing Value Source: NWS Daily Summary

Daily Weather History Graph

Daily Weather History Graph

Search for Another Location

Airport or City:

Trip Planner

Search our weather history database for the weather conditions in past years. The results will help you decide how hot, cold, wet, or windy it might be!

Date:

Astronomy

May. 07, 2014 Rise Set
Actual Time 6:31 AM EDT 8:28 PM EDT
Civil Twilight 6:02 AM EDT 8:57 PM EDT
Nautical Twilight 5:27 AM EDT 9:32 PM EDT
Astronomical Twilight 4:50 AM EDT 10:10 PM EDT
Moon 1:40 PM EDT (5/7) 2:21 AM EDT (5/7)
Length of Visible Light 14h 54m
Length of Day
13h 57m
First Quarter, 55% of the Moon is Illuminated
May 7
First Quarter
May 14
Full
May 21
Last Quarter
May 28
New
Jun 5
First Quarter

Hourly Weather History & Observations

Time (EDT) Temp. Dew Point Humidity Pressure Visibility Wind Dir Wind Speed Gust Speed Precip Events Conditions
12:53 AM 68.0 °F 48.9 °F 50% 29.94 in 10.0 mi Calm Calm - N/A   Clear
1:53 AM 66.9 °F 50.0 °F 54% 29.92 in 10.0 mi SSE 4.6 mph - N/A   Clear
2:53 AM 66.0 °F 51.1 °F 59% 29.93 in 10.0 mi Calm Calm - N/A   Clear
3:53 AM 63.0 °F 52.0 °F 67% 29.94 in 10.0 mi Calm Calm - N/A   Clear
4:53 AM 62.6 °F 51.8 °F 68% 29.99 in 10.0 mi Calm Calm - N/A   Clear
5:53 AM 61.0 °F 51.1 °F 70% 29.96 in 10.0 mi SW 3.5 mph - N/A   Clear
6:53 AM 61.0 °F 52.0 °F 72% 29.99 in 10.0 mi Variable 4.6 mph - N/A   Clear
7:53 AM 64.9 °F 53.1 °F 65% 30.03 in 10.0 mi Variable 3.5 mph - N/A   Clear
8:53 AM 66.9 °F 54.0 °F 63% 30.05 in 10.0 mi Variable 3.5 mph - N/A   Clear
9:53 AM 70.0 °F 55.0 °F 59% 30.07 in 10.0 mi Calm Calm - N/A   Clear
10:53 AM 73.0 °F 55.9 °F 55% 30.06 in 10.0 mi Calm Calm - N/A   Clear
11:53 AM 78.1 °F 53.1 °F 42% 30.05 in 10.0 mi Variable 3.5 mph - N/A   Clear
12:53 PM 78.8 °F 51.8 °F 39% 30.08 in 10.0 mi South 8.1 mph - N/A   Clear
1:53 PM 80.6 °F 51.8 °F 37% 30.07 in 10.0 mi Variable 5.8 mph - N/A   Clear
2:53 PM 84.0 °F 51.1 °F 32% 30.01 in 10.0 mi Variable 4.6 mph - N/A   Clear
3:53 PM 84.0 °F 51.1 °F 32% 30.00 in 10.0 mi Variable 3.5 mph - N/A   Clear
4:53 PM 84.0 °F 48.9 °F 29% 29.99 in 10.0 mi Calm Calm - N/A   Clear
5:53 PM 82.9 °F 50.0 °F 32% 29.99 in 10.0 mi Calm Calm - N/A   Clear
6:53 PM 82.9 °F 48.9 °F 31% 29.98 in 10.0 mi Variable 3.5 mph - N/A   Clear
7:53 PM 80.1 °F 46.9 °F 31% 29.98 in 10.0 mi South 3.5 mph - N/A   Clear
8:53 PM 78.1 °F 48.0 °F 35% 29.99 in 10.0 mi SSW 3.5 mph - N/A   Clear
9:53 PM 73.9 °F 48.9 °F 41% 30.00 in 10.0 mi Variable 3.5 mph - N/A   Clear
10:53 PM 73.9 °F 48.9 °F 41% 30.01 in 10.0 mi Variable 3.5 mph - N/A   Clear
11:53 PM 72.0 °F 48.9 °F 44% 30.01 in 10.0 mi North - - N/A   Clear